Wind_Speed
117 118 118 119 119 120 120 121 121 122 122 123 123 123 123 123 123 123 123 123 123 123 124 125 125 126 126 127 127 127 127 127 127 126 126 126 126 126 127 127 127 126
119 119 120 121 121 122 122 122 123 123 124 124 125 125 125 125 125 125 125 125 125 125 126 127 127 127 128 128 129 129 129 129 129 128 128 128 128 128 128 128 128 128
120 120 121 122 123 123 124 124 125 126 126 127 128 128 128 128 128 128 128 128 128 128 129 129 129 129 129 130 130 130 130 130 130 130 130 130 130 129 129 130 130 130
122 122 123 124 124 125 126 126 127 128 129 130 130 131 131 131 131 130 130 130 130 131 131 131 131 131 131 131 131 131 131 131 131 131 131 131 131 131 131 131 131 132
125 126 126 127 127 128 129 129 129 130 131 132 133 133 134 134 133 133 132 132 132 133 133 133 133 133 133 133 133 133 133 133 132 132 132 132 133 132 132 132 132 133
128 129 130 130 131 131 132 132 133 133 133 134 134 135 136 136 135 135 134 134 134 134 134 134 134 134 134 134 134 134 134 134 134 133 133 133 133 133 133 133 134 134
132 132 133 133 134 135 135 136 136 136 136 136 137 138 138 139 138 137 136 136 136 135 135 134 134 134 134 134 134 134 134 134 134 134 134 134 134 134 134 134 135 135
135 135 136 136 136 137 137 138 139 139 139 139 139 140 140 141 141 140 139 138 138 138 137 136 135 134 133 133 133 133 133 133 133 134 134 134 135 134 134 135 135 135
136 136 137 137 137 137 138 139 140 140 140 140 141 141 141 141 141 141 141 140 140 139 138 137 136 135 134 133 132 132 132 132 132 132 133 133 134 134 134 135 135 135
134 135 135 135 136 136 136 137 138 139 140 140 140 140 141 141 141 141 141 141 140 140 139 138 137 136 135 134 133 132 131 131 131 131 131 132 133 133 133 134 134 134
132 132 133 134 134 133 133 134 135 136 137 138 139 139 139 140 140 141 141 140 139 139 138 137 137 136 134 133 132 132 131 130 130 130 130 131 132 132 132 132 133 133
131 131 131 132 132 132 131 131 132 133 134 135 135 136 136 136 137 137 137 137 137 135 134 134 133 133 132 130 129 129 128 128 128 128 129 129 130 131 131 131 132 132
126 126 127 127 127 127 127 127 127 127 128 129 130 130 131 131 131 132 132 132 132 130 129 128 128 128 127 126 124 124 124 124 123 124 125 125 126 127 128 128 129 130
119 120 120 121 121 121 122 122 122 122 123 124 125 125 126 127 127 127 127 127 126 125 124 124 123 123 122 121 120 120 119 119 118 119 120 121 121 122 122 123 124 125
114 114 115 115 115 116 116 117 117 118 119 120 121 122 122 123 123 124 123 123 122 121 120 120 119 119 118 117 117 117 116 115 114 114 115 117 118 118 118 118 119 120
110 111 111 111 111 112 112 113 113 113 114 116 117 118 119 119 120 120 120 120 119 118 117 116 115 115 114 114 114 114 114 113 112 111 112 113 114 115 115 115 116 116
106 107 108 108 109 109 110 110 110 110 111 112 114 115 116 116 117 117 117 117 116 115 115 114 113 111 111 110 111 113 112 112 111 110 110 110 111 112 114 114 115 115
101 102 103 104 105 106 106 107 107 108 108 109 110 111 112 113 114 114 115 115 114 114 113 112 111 109 108 107 108 110 111 111 110 109 108 108 108 109 111 113 113 114
97 97 98 99 100 101 102 103 103 104 105 106 106 107 108 109 110 111 111 111 111 111 110 109 108 107 106 105 105 106 109 109 108 107 106 106 106 107 108 110 111 113
93 94 94 95 96 97 98 99 100 100 102 103 103 104 104 105 106 107 107 108 108 108 107 107 106 105 104 103 101 102 105 108 107 105 104 104 104 105 106 108 109 111
90 91 92 92 93 94 95 96 97 97 98 99 100 101 101 102 103 103 104 105 105 105 105 104 104 103 102 101 99 99 101 104 106 104 103 102 101 102 104 106 108 109
88 88 89 89 90 91 92 93 93 94 95 96 97 98 98 99 99 100 101 101 102 102 102 102 102 101 100 99 98 96 97 101 103 103 102 101 100 100 101 103 106 108
85 85 86 87 87 88 89 90 91 92 92 93 94 95 95 96 96 97 97 98 99 99 100 100 99 99 98 97 96 94 95 97 99 101 101 100 98 98 99 101 104 106
83 83 84 85 85 86 87 88 89 90 90 91 91 92 93 94 94 94 95 95 96 96 97 97 97 97 96 95 94 93 92 93 96 98 99 98 97 96 97 99 101 104
81 81 81 82 83 84 85 86 87 88 88 89 89 90 90 91 92 92 93 93 93 94 94 95 95 95 94 94 93 92 90 90 92 95 97 96 95 95 96 97 99 102
80 80 80 80 81 82 83 84 84 85 86 87 87 88 88 89 89 90 90 91 91 91 91 92 93 93 93 92 91 91 89 88 89 91 93 93 93 94 94 95 97 100
Wind_Direction
266 265 265 265 266 266 266 266 265 265 265 264 264 263 262 262 261 261 260 260 259 259 258 257 257 257 256 256 256 256 256 256 256 256 256 256 256 256 256 256 256 256
266 266 266 266 266 265 266 266 266 266 265 265 265 264 264 263 262 262 261 261 260 260 259 258 257 257 257 256 256 256 256 256 256 256 256 256 255 255 255 255 255 255
267 267 266 266 266 266 265 265 265 265 265 264 264 264 264 264 263 262 262 261 261 260 260 259 258 258 257 257 257 256 256 256 256 256 256 255 255 255 255 255 255 255
266 265 265 265 265 265 265 265 264 264 264 264 264 263 263 263 262 262 262 262 261 261 260 259 259 259 258 258 257 257 257 256 256 256 256 256 255 255 255 255 254 254
265 264 264 264 264 264 264 264 264 264 265 265 264 264 263 263 262 262 262 261 261 261 260 260 260 259 259 258 258 258 257 257 257 256 256 256 256 255 255 255 254 254
264 264 264 264 264 264 264 264 264 264 265 265 265 265 265 265 264 264 263 262 262 261 261 260 260 260 260 259 259 259 258 258 258 257 257 257 256 256 256 255 255 255
263 263 263 264 264 264 265 265 265 265 265 265 265 266 266 266 266 266 265 265 264 264 263 262 261 261 260 260 260 259 259 259 259 258 258 258 257 257 257 256 256 255
264 264 264 264 264 264 265 265 266 266 266 266 266 266 266 266 267 267 266 266 266 265 265 264 263 263 262 261 261 260 260 259 259 259 259 258 258 258 257 257 257 256
265 265 265 264 264 264 265 265 266 266 266 266 266 266 266 266 266 266 266 266 266 266 265 265 265 264 264 263 262 261 261 260 260 259 259 259 259 258 258 258 258 257
266 266 266 266 265 265 265 265 265 266 266 266 266 266 266 266 266 266 266 266 266 266 266 266 265 265 264 264 263 263 262 262 261 261 260 260 259 259 258 258 258 258
267 267 267 267 266 266 266 265 265 266 266 266 266 266 266 266 266 267 266 266 266 266 266 266 266 265 265 264 264 263 263 262 262 261 261 260 260 259 259 259 258 258
269 268 268 268 268 267 267 266 266 266 266 266 266 266 266 266 267 267 267 267 267 266 266 266 266 266 265 265 264 264 263 263 262 262 261 261 260 260 259 259 259 258
269 269 269 269 268 268 268 267 267 267 267 267 267 267 267 267 267 267 267 267 267 267 267 267 266 266 266 266 265 265 264 264 263 262 262 261 260 260 260 259 259 258
269 269 269 268 268 268 268 268 268 267 267 267 267 267 267 267 267 267 267 267 267 267 267 267 267 267 267 266 266 265 265 264 263 263 263 262 262 261 260 260 259 259
270 269 269 269 268 268 268 268 267 267 267 267 267 267 267 267 267 267 267 267 267 267 267 267 267 267 267 267 267 266 265 264 264 263 263 263 263 262 261 261 260 259
270 270 270 269 269 269 268 268 267 267 267 267 266 267 267 267 267 267 268 268 268 268 268 267 267 267 267 267 267 267 266 265 264 263 262 262 262 262 262 261 261 260
270 269 269 269 269 269 268 268 268 267 267 266 266 266 266 266 267 267 267 268 268 268 268 268 267 267 267 267 267 267 266 266 265 264 263 262 262 262 262 262 261 260
269 269 268 268 268 267 267 267 267 267 266 266 266 265 266 266 266 266 267 267 267 267 267 267 267 267 266 266 266 266 266 266 265 265 264 263 262 262 261 261 261 260
269 269 268 267 267 267 267 266 266 266 265 265 265 265 265 265 265 265 266 266 266 267 267 267 267 266 266 266 265 265 266 266 265 264 264 263 263 262 261 260 260 260
269 268 268 267 267 267 266 266 266 265 265 265 265 265 265 265 265 265 265 265 266 266 266 266 266 266 265 265 264 264 265 265 265 264 263 263 262 262 261 261 260 259
269 268 268 267 267 266 266 266 266 265 265 265 265 265 265 264 265 265 265 265 265 265 265 265 265 265 265 264 264 263 263 264 264 264 263 262 261 261 260 260 260 259
269 268 268 267 266 266 266 265 265 265 265 265 265 265 265 264 264 264 265 265 265 265 265 265 265 265 264 264 263 262 262 262 263 263 263 262 261 260 260 259 260 260
269 269 268 267 267 266 266 265 265 265 264 264 264 264 264 264 264 264 264 264 264 265 265 265 265 264 264 263 263 262 261 261 262 262 262 261 260 259 259 258 259 259
270 269 268 268 267 266 266 266 265 265 265 264 264 264 264 264 265 264 264 264 264 264 265 265 265 264 264 264 263 262 261 260 261 261 261 261 260 259 258 257 257 258
271 270 269 268 268 267 267 266 266 266 266 265 265 265 265 264 265 265 265 265 265 265 265 265 265 265 265 264 264 263 261 261 261 261 261 261 260 259 258 257 256 256
271 271 270 269 268 268 268 267 267 267 266 266 266 266 266 266 265 265 265 265 265 265 265 265 265 265 265 264 264 263 262 261 261 261 261 261 261 260 259 258 257 256
Height
10341 10339 10338 10337 10335 10334 10333 10332 10331 10330 10329 10328 10328 10328 10328 10327 10327 10328 10328 10328 10328 10327 10327 10326 10327 10326 10326 10326 10326 10327 10328 10329 10331 10332 10334 10335 10335 10336 10337 10339 10341 10343
10323 10321 10320 10318 10317 10316 10315 10314 10312 10311 10310 10309 10308 10307 10308 10308 10308 10309 10309 10309 10309 10308 10308 10308 10308 10308 10308 10309 10309 10310 10311 10312 10314 10315 10316 10317 10318 10319 10320 10322 10324 10325
10304 10302 10300 10299 10297 10296 10296 10295 10293 10292 10291 10289 10288 10287 10288 10287 10288 10289 10289 10290 10290 10289 10288 10289 10289 10289 10290 10291 10291 10292 10293 10295 10296 10297 10298 10299 10300 10302 10303 10304 10306 10307
10284 10283 10281 10279 10278 10276 10275 10274 10273 10272 10270 10269 10268 10268 10267 10267 10267 10269 10270 10270 10269 10268 10268 10269 10270 10270 10270 10271 10273 10274 10275 10276 10277 10278 10279 10280 10282 10284 10285 10287 10288 10289
10265 10263 10261 10260 10258 10256 10254 10254 10253 10252 10250 10248 10247 10245 10245 10245 10246 10248 10249 10250 10249 10248 10249 10249 10249 10250 10251 10252 10253 10255 10256 10257 10258 10259 10260 10261 10263 10265 10267 10268 10269 10270
10244 10242 10240 10239 10237 10235 10234 10233 10232 10231 10229 10228 10225 10223 10221 10222 10223 10225 10227 10227 10228 10228 10229 10229 10229 10230 10231 10233 10234 10235 10236 10237 10239 10240 10241 10242 10244 10246 10247 10249 10250 10251
10223 10222 10220 10218 10217 10215 10212 10210 10210 10210 10208 10207 10205 10203 10200 10199 10199 10202 10203 10204 10204 10205 10207 10208 10209 10210 10212 10213 10215 10216 10217 10218 10220 10221 10222 10223 10224 10226 10228 10229 10231 10232
10202 10201 10199 10198 10196 10195 10192 10189 10188 10187 10187 10186 10184 10183 10181 10178 10177 10179 10180 10180 10181 10182 10183 10185 10187 10189 10191 10193 10195 10196 10197 10198 10200 10201 10202 10203 10204 10205 10207 10209 10210 10212
10182 10180 10179 10178 10176 10175 10174 10171 10168 10166 10165 10165 10163 10162 10160 10158 10157 10157 10157 10157 10158 10159 10160 10162 10164 10166 10169 10171 10174 10176 10177 10178 10179 10181 10182 10183 10184 10185 10187 10188 10190 10192
10161 10160 10158 10156 10155 10155 10154 10152 10149 10146 10144 10143 10142 10141 10139 10137 10136 10135 10135 10135 10136 10136 10138 10140 10141 10144 10147 10149 10152 10154 10156 10158 10159 10160 10162 10162 10163 10164 10166 10168 10169 10171
10140 10138 10136 10134 10133 10132 10132 10131 10129 10126 10124 10122 10120 10119 10118 10116 10114 10113 10112 10113 10114 10115 10116 10118 10119 10121 10124 10127 10130 10132 10135 10137 10138 10139 10140 10141 10142 10143 10145 10147 10149 10151
10116 10115 10113 10111 10109 10109 10109 10108 10107 10106 10103 10101 10099 10098 10096 10095 10094 10093 10091 10090 10092 10094 10095 10096 10097 10099 10102 10105 10108 10110 10113 10115 10117 10117 10118 10119 10120 10122 10124 10126 10128 10130
10093 10092 10090 10088 10087 10086 10085 10085 10085 10084 10082 10081 10079 10077 10075 10074 10074 10073 10072 10071 10071 10073 10075 10076 10076 10078 10081 10084 10087 10089 10090 10092 10094 10096 10096 10098 10099 10101 10103 10105 10107 10109
10072 10070 10069 10067 10066 10065 10064 10063 10063 10062 10061 10060 10059 10057 10056 10054 10053 10053 10053 10052 10052 10054 10056 10056 10057 10059 10061 10063 10065 10067 10068 10070 10073 10075 10075 10076 10078 10081 10083 10084 10087 10089
10052 10050 10049 10048 10047 10046 10044 10043 10043 10042 10041 10040 10039 10038 10037 10035 10034 10034 10034 10034 10034 10035 10037 10038 10039 10040 10043 10045 10045 10045 10046 10049 10053 10055 10056 10056 10058 10060 10062 10064 10066 10068
10032 10030 10029 10028 10027 10026 10025 10024 10024 10023 10022 10021 10020 10019 10018 10017 10016 10016 10015 10016 10016 10017 10018 10020 10021 10023 10025 10027 10026 10024 10025 10028 10031 10034 10037 10038 10039 10040 10042 10044 10046 10048
10014 10012 10011 10009 10008 10007 10006 10005 10005 10004 10003 10002 10002 10001 10000 10000 9999 9998 9998 9998 9999 9999 10000 10001 10003 10005 10008 10011 10010 10006 10006 10008 10011 10013 10016 10019 10021 10022 10023 10024 10026 10028
9997 9996 9994 9992 9991 9989 9988 9988 9987 9986 9985 9984 9984 9984 9983 9983 9982 9982 9981 9981 9982 9982 9983 9984 9985 9987 9990 9994 9995 9991 9987 9988 9991 9994 9996 9999 10002 10004 10005 10006 10007 10008
9980 9979 9977 9976 9974 9973 9972 9971 9970 9969 9968 9967 9967 9967 9967 9966 9966 9966 9965 9965 9965 9966 9966 9967 9968 9970 9973 9976 9980 9979 9972 9969 9972 9976 9978 9981 9983 9985 9987 9988 9989 9990
9963 9962 9961 9960 9958 9956 9955 9954 9953 9952 9951 9950 9950 9950 9950 9950 9950 9949 9949 9949 9949 9949 9950 9951 9951 9953 9956 9959 9963 9965 9959 9953 9953 9957 9960 9963 9965 9967 9968 9969 9971 9972
9947 9946 9944 9943 9942 9940 9939 9937 9936 9936 9935 9934 9934 9934 9934 9934 9934 9933 9933 9932 9932 9933 9933 9934 9935 9936 9939 9942 9946 9950 9947 9940 9937 9938 9941 9945 9947 9949 9951 9951 9952 9954
9931 9930 9928 9927 9926 9925 9923 9922 9921 9919 9918 9918 9917 9917 9918 9918 9918 9918 9917 9917 9916 9916 9916 9917 9919 9920 9922 9925 9929 9934 9933 9927 9923 9922 9923 9927 9930 9932 9933 9935 9935 9936
9916 9914 9913 9912 9911 9909 9908 9907 9906 9905 9903 9903 9902 9902 9901 9901 9902 9902 9902 9901 9901 9900 9900 9901 9902 9904 9906 9908 9912 9917 9918 9915 9910 9908 9907 9909 9914 9916 9917 9918 9919 9920
9900 9899 9898 9896 9895 9894 9893 9892 9891 9890 9889 9888 9888 9887 9887 9886 9886 9886 9887 9887 9886 9885 9885 9885 9885 9887 9889 9892 9894 9899 9902 9902 9898 9894 9891 9894 9899 9900 9901 9902 9903 9903
9885 9884 9884 9882 9881 9880 9879 9878 9877 9876 9875 9874 9873 9873 9873 9872 9872 9871 9872 9872 9871 9871 9871 9870 9870 9871 9873 9876 9878 9881 9885 9888 9886 9880 9877 9880 9884 9884 9885 9887 9888 9888
9871 9870 9869 9868 9867 9866 9865 9864 9863 9862 9861 9860 9860 9859 9859 9858 9858 9857 9857 9858 9857 9857 9857 9856 9856 9856 9857 9859 9862 9864 9868 9872 9872 9868 9865 9867 9869 9869 9869 9871 9873 9873